Home > Weather > Springfield > Past weeks

Flag for USA Past Weather in Springfield, Illinois, USA — Yesterday and Last 2 Weeks

Now
89 °F

Sunny.


Feels Like: 105 °F
Forecast: 77 / 93 °F
Wind: 8 mph from Southwest

Location: Capital Airport

Current Time: Jul 24, 2016 at 11:56:35 AM

Latest Report: Jul 24, 2016 at 10:52 AM


Visibility: 10 mi

Pressure: 29.94 "Hg

Humidity: 72%

Dew Point: 79 °F

Location of SpringfieldLocation

Past Weather in Springfield — Graph

°F

Springfield Temperature Yesterday

Maximum temperature yesterday: 91 °F (at 1:52 PM)
Minimum temperature yesterday: 73 °F (at 5:52 AM)
Average temperature yesterday: 84 °F

High & Low Weather Summary for the Past Weeks

 TemperatureHumidityPressure
High94 °F (Jul 21, 2:52 PM)97% (Jul 23, 5:52 AM)30.24 "Hg (Jul 23, 5:52 AM)
Low64 °F (Jul 16, 3:52 AM)47% (Jul 18, 3:52 PM)29.81 "Hg (Jul 13, 3:52 PM)
Average79 °F77%30.02 "Hg
* Reported Jul 9 9:52 AM — Jul 24 9:52 AM, Springfield, Weather by CustomWeather, © 2016

Note: Actual official high and low records may vary slightly from our data, if they occured in-between our weather recording intervals... More about our weather records

Advertising

Springfield Weather History for the Previous 24 Hours

Scroll right to see more
 ConditionsComfort  
Time TempWeatherWind HumidityBarometerVisibility
9:52 AM
Sun, Jul 24
87 °FSunny.9 mph72%29.93 "Hg10 mi
8:52 AM84 °FSunny.9 mph77%29.93 "Hg10 mi
7:52 AM81 °FSunny.8 mph82%29.92 "Hg9 mi
6:52 AM80 °FSunny.9 mph85%29.91 "Hg8 mi
5:52 AM79 °FClear.6 mph88%29.90 "Hg8 mi
4:52 AM79 °FClear.5 mph88%29.90 "Hg8 mi
3:52 AM80 °FClear.5 mph85%29.90 "Hg10 mi
2:52 AM80 °FClear.6 mph85%29.90 "Hg9 mi
1:52 AM82 °FClear.8 mph82%29.92 "Hg10 mi
12:52 AM83 °FClear.8 mph79%29.93 "Hg10 mi
11:52 PM
Sat, Jul 23
83 °FClear.8 mph82%29.93 "Hg10 mi
10:52 PM82 °FClear.5 mph85%29.94 "Hg10 mi
9:52 PM84 °FClear.7 mph77%29.92 "Hg10 mi
8:52 PM85 °FSunny.7 mph75%29.90 "Hg10 mi
7:52 PM86 °FSunny.8 mph72%29.88 "Hg10 mi
6:52 PM89 °FSunny.8 mph70%29.89 "Hg10 mi
5:52 PM90 °FSunny.5 mph68%29.90 "Hg10 mi
4:52 PM91 °FSunny.9 mph64%29.90 "Hg10 mi
3:52 PM91 °FSunny.7 mph61%29.92 "Hg10 mi
2:52 PM91 °FSunny.6 mph61%29.94 "Hg10 mi
1:52 PM91 °FSunny.5 mph61%29.97 "Hg10 mi
12:52 PM90 °FSunny.6 mph61%29.97 "Hg10 mi
11:52 AM89 °FSunny.6 mph63%29.98 "Hg10 mi
Weather by CustomWeather, © 2016

See weather overviewHow to use our weather pages